Location: Slanting_Bridge
(35.6330°N, 80.9830°W)
Time: 00:27:03
(UTC-04:00)

Amateur Radio Satellites - All Passes

Search period start: 22 October 2017 23:57
Search period end: 23 October 2017 23:57
Location: Slanting_Bridge, 35.6330°N, 80.9830°W

Satellite Date Start Highest point End Downlink Frequencies (MHz)
Time Altitude Azimuth
LO-87 23 Oct 00:08:09 00:11:40 56° 260° (W) 00:15:14 145.935 - 145.965
QB50P2 23 Oct 00:25:41 00:28:47 20° 95° (E) 00:31:52 145.880/145.840
NANOSAT C BR1 23 Oct 00:26:27 00:29:00 16° 93° (E) 00:31:33 145.865
FO-29 23 Oct 00:31:13 00:33:16 11° 301° (WNW) 00:35:22 435.910
DUCHIFAT 1 23 Oct 00:35:21 00:38:10 17° 94° (E) 00:40:57 145.980
VELOX 1 23 Oct 00:35:53 00:39:28 25° 70° (ENE) 00:43:05 145.980
ESTCUBE 1 23 Oct 00:58:42 01:02:26 26° 264° (W) 01:06:12 437.505/2401.250
SPROUT 23 Oct 01:04:36 01:08:53 84° 75° (ENE) 01:13:11 437.525
AIST 2D 23 Oct 01:07:02 01:10:12 33° 286° (WNW) 01:13:21 435.315
DX 1 23 Oct 01:33:05 01:36:39 26° 70° (ENE) 01:40:16 434.975-435.025
EO-79 23 Oct 01:34:20 01:38:34 66° 285° (WNW) 01:42:45 145.935-145.965
POLYITAN 1 23 Oct 01:39:57 01:44:07 56° 285° (WNW) 01:48:15 437.675
50 SAT 23 Oct 01:42:36 01:45:34 34° 74° (ENE) 01:48:34 437.505
Oscar 19 23 Oct 01:44:14 01:46:47 14° 92° (E) 01:49:19 437.125/150
NO-84 23 Oct 01:49:42 01:53:12 25° 124° (SE) 01:56:44 435.350 FM
UKube-1 23 Oct 01:51:07 01:54:39 26° 70° (ENE) 01:58:13 .
RS-15 23 Oct 01:53:51 02:05:58 63° 305° (NW) 02:18:12 29.354- 29.394
QB50P2 23 Oct 02:00:53 02:04:32 29° 289° (WNW) 02:08:11 145.880/145.840
NANOSAT C BR1 23 Oct 02:00:55 02:04:48 35° 288° (WNW) 02:08:39 145.865
BUGSAT 1 23 Oct 02:06:05 02:10:10 49° 100° (E) 02:14:11 437.445
DUCHIFAT 1 23 Oct 02:10:05 02:13:52 32° 288° (WNW) 02:17:36 145.980
VELOX 1 23 Oct 02:12:17 02:15:48 24° 264° (W) 02:19:22 145.980
Gurwin Techsat 1B 23 Oct 02:36:44 02:41:32 34° 98° (E) 02:46:19 435.225
M-CUBED/EXP-1 PRIME 23 Oct 02:40:19 02:43:35 28° 103° (ESE) 02:47:02 437.505
BEESAT 23 Oct 02:44:08 02:46:24 13° 64° (ENE) 02:48:41 436.000
MOZHAYETS 4 23 Oct 03:09:13 03:13:04 26° 70° (ENE) 03:16:55
DX 1 23 Oct 03:09:20 03:12:45 23° 264° (W) 03:16:10 434.975-435.025
Oscar 19 23 Oct 03:21:24 03:26:25 58° 287° (WNW) 03:31:26 437.125/150
NO-84 23 Oct 03:26:28 03:30:28 38° 319° (NW) 03:34:29 435.350 FM
UKube-1 23 Oct 03:27:11 03:30:34 23° 264° (W) 03:33:59 .
BUGSAT 1 23 Oct 03:43:22 03:45:01 12° 295° (WNW) 03:46:40 437.445
AO-7 23 Oct 04:01:29 04:08:41 32° 98° (E) 04:15:51 .
ITAMSAT 1 23 Oct 04:01:37 04:05:07 18° 94° (E) 04:08:36 435.822/435.867
ITUPSAT 1 23 Oct 04:05:18 04:10:07 84° 257° (WSW) 04:14:57 437.325
RS-15 23 Oct 04:12:59 04:21:39 21° 332° (NNW) 04:30:16 29.354- 29.394
M-CUBED/EXP-1 PRIME 23 Oct 04:15:19 04:17:49 17° 294° (WNW) 04:20:25 437.505
Gurwin Techsat 1B 23 Oct 04:16:55 04:21:17 26° 292° (WNW) 04:25:38 435.225
BEESAT 23 Oct 04:18:55 04:23:38 58° 259° (W) 04:28:21 436.000
MOZHAYETS 4 23 Oct 04:46:14 04:50:06 26° 264° (W) 04:53:58
CUBESAT XI-V 23 Oct 05:04:26 05:09:04 81° 258° (WSW) 05:13:42 437.345
DOVE 4 23 Oct 05:14:36 05:16:51 13° 91° (E) 05:19:07 437.250
SO-50 23 Oct 05:23:38 05:24:47 11° 107° (ESE) 05:25:55 436.795
ITAMSAT 1 23 Oct 05:39:46 05:44:46 47° 288° (WNW) 05:49:45 435.822/435.867
KKS-1 23 Oct 05:50:31 05:54:56 89° 257° (WSW) 05:59:25 437.445
AO-7 23 Oct 05:53:40 06:01:36 52° 294° (WNW) 06:09:32 .
JUGNU 23 Oct 06:10:52 06:14:09 15° 173° (S) 06:17:26 437.505
STARS 23 Oct 06:14:37 06:18:57 65° 75° (ENE) 06:23:20 437.465
CUTE-I 23 Oct 06:32:34 06:35:38 15° 93° (E) 06:38:42 437.470
RS-15 23 Oct 06:35:01 06:41:13 15° 10° (N) 06:47:17 29.354- 29.394
DOVE 4 23 Oct 06:49:45 06:54:48 66° 284° (WNW) 07:00:01 437.250
KAITUO 1B 23 Oct 06:54:12 06:56:51 19° 95° (E) 06:59:30 145.475/437.950
SO-50 23 Oct 07:00:13 07:04:39 62° 302° (WNW) 07:09:06 436.795
XW-2F 23 Oct 07:00:50 07:04:08 30° 97° (E) 07:07:26 145.980 - 146.000
O/OREOS (USA 219) 23 Oct 07:02:55 07:07:33 85° 246° (WSW) 07:12:06 437.305
NUDT-PHONESAT 23 Oct 07:02:55 07:05:52 23° 96° (E) 07:08:48 437.300
STRAND 1 23 Oct 07:09:37 07:13:36 23° 67° (ENE) 07:17:36 437.568
LilacSat-2 23 Oct 07:12:25 07:16:05 52° 100° (E) 07:19:45 437.200
XW-2D 23 Oct 07:15:27 07:19:08 55° 100° (E) 07:22:48 145.860 - 145.880
XW-2B 23 Oct 07:28:58 07:32:44 83° 102° (ESE) 07:36:27 145.730 - 145.750
PCSat 23 Oct 07:31:59 07:36:42 32° 108° (ESE) 07:41:27 145.827
XW-2C 23 Oct 07:52:35 07:56:09 44° 285° (WNW) 07:59:42 145.795 - 145.815
JUGNU 23 Oct 07:58:52 08:02:24 16° 184° (S) 08:05:54 437.505
YUBILEINY 23 Oct 08:04:02 08:05:35 11° 75° (ENE) 08:07:07 435.215
CUTE-I 23 Oct 08:10:43 08:15:59 57° 287° (WNW) 08:21:13 437.470
CUBEBUG 2 23 Oct 08:12:50 08:16:47 28° 96° (E) 08:20:36 437.445
HO-68 23 Oct 08:15:11 08:22:15 55° 101° (ESE) 08:29:15 435.675
CUTE 1.7 + AOD 2 23 Oct 08:15:27 08:19:35 54° 100° (E) 08:23:41 437.475
SEEDS 23 Oct 08:16:39 08:20:24 32° 97° (E) 08:24:09 437.485
ISS 23 Oct 08:21:41 08:23:50 17° 129° (SE) 08:25:59 437.550
KAITUO 1B 23 Oct 08:27:51 08:30:44 22° 289° (WNW) 08:33:37 145.475/437.950
AAUSAT CUBESAT 2 23 Oct 08:31:26 08:34:29 20° 95° (E) 08:37:32 437.432
XW-2F 23 Oct 08:35:56 08:37:57 14° 291° (WNW) 08:39:58 145.980 - 146.000
NUDT-PHONESAT 23 Oct 08:37:02 08:39:32 18° 290° (WNW) 08:42:01 437.300
SRMSAT 23 Oct 08:40:16 08:43:14 14° 171° (S) 08:46:11 437.500
UWE-3 23 Oct 08:44:06 08:48:10 35° 97° (E) 08:52:06 435.000/436.395/437.385
STRAND 1 23 Oct 08:47:50 08:52:31 36° 262° (W) 08:57:15 437.568
Oscar 11 23 Oct 08:48:17 08:49:07 10° 91° (E) 08:49:58 .
RS-15 23 Oct 08:48:17 08:59:00 36° 43° (NE) 09:09:09 29.354- 29.394
FO-29 23 Oct 08:52:51 08:57:34 35° 69° (ENE) 09:02:38 435.910
TIGRISAT 23 Oct 09:12:53 09:13:50 11° 63° (ENE) 09:14:47 435.000
PCSat 23 Oct 09:15:14 09:20:00 31° 304° (NW) 09:24:49 145.827
nSIGHT-1 23 Oct 09:15:42 09:18:53 90° 164° (SSE) 09:22:06 .
XW-2A 23 Oct 09:19:52 09:23:08 58° 284° (WNW) 09:26:24 145.665 - 145.685
AO-73 23 Oct 09:26:21 09:30:31 48° 99° (E) 09:34:34 145.935
JUGNU 23 Oct 09:49:08 09:50:36 11° 193° (SSW) 09:52:04 437.505
CUBEBUG 2 23 Oct 09:49:38 09:53:12 23° 291° (WNW) 09:56:40 437.445
ZACube-1 23 Oct 09:50:20 09:54:40 73° 283° (WNW) 09:58:51 437.345
YUBILEINY 23 Oct 09:52:05 10:00:43 74° 93° (E) 10:09:24 435.215
SEEDS 23 Oct 09:53:03 09:55:49 17° 291° (WNW) 09:58:33 437.485
CUTE 1.7 + AOD 2 23 Oct 09:53:48 09:54:53 11° 294° (WNW) 09:55:57 437.475
ISS 23 Oct 09:57:01 10:00:04 37° 323° (NW) 10:03:08 437.550
NO-84 23 Oct 10:02:26 10:06:02 37° 40° (NE) 10:09:21 435.350 FM
HO-68 23 Oct 10:03:47 10:09:29 26° 298° (WNW) 10:15:12 435.675
AAUSAT CUBESAT 2 23 Oct 10:06:24 10:09:53 27° 288° (WNW) 10:13:22 437.432
UWE-3 23 Oct 10:21:20 10:24:17 18° 293° (WNW) 10:27:12 435.000/436.395/437.385
Oscar 11 23 Oct 10:21:20 10:25:32 53° 285° (WNW) 10:29:42 .
SRMSAT 23 Oct 10:27:59 10:31:37 17° 181° (S) 10:35:17 437.500
UNISAT 6 23 Oct 10:31:19 10:35:57 87° 77° (ENE) 10:40:41 437.425
PRISM 23 Oct 10:37:01 10:40:45 38° 73° (ENE) 10:44:32 437.425
FO-29 23 Oct 10:38:42 10:42:48 23° 267° (W) 10:47:08 435.910
TIGRISAT 23 Oct 10:45:12 10:49:50 72° 259° (WSW) 10:54:33 435.000
nSIGHT-1 23 Oct 10:54:07 10:55:34 12° 334° (NNW) 10:57:01 .
BEESAT 3 23 Oct 10:55:05 10:57:37 16° 110° (ESE) 11:00:10 437.485
EO-88 23 Oct 10:58:57 11:02:21 37° 99° (E) 11:05:43 145.990 - 145.960
RS-15 23 Oct 11:00:38 11:12:17 68° 247° (WSW) 11:23:18 29.354- 29.394
DELFI C3 23 Oct 11:03:17 11:07:17 84° 279° (W) 11:11:15 145.870
AO-73 23 Oct 11:04:28 11:06:15 12° 294° (WNW) 11:08:01 145.935
Max Valier Satellite 23 Oct 11:16:11 11:19:51 79° 282° (WNW) 11:23:29 145.860
QB50P2 23 Oct 11:17:21 11:18:26 11° 65° (ENE) 11:19:31 145.880/145.840
AIST 2D 23 Oct 11:37:41 11:41:02 44° 75° (ENE) 11:44:23 435.315
LO-87 23 Oct 11:39:09 11:40:56 13° 93° (E) 11:42:43 145.935 - 145.965
NO-84 23 Oct 11:40:37 11:43:05 17° 238° (WSW) 11:45:25 435.350 FM
YUBILEINY 23 Oct 11:52:12 11:58:18 21° 292° (WNW) 12:04:29 435.215
PRISM 23 Oct 12:14:15 12:16:10 13° 267° (W) 12:18:05 437.425
SRMSAT 23 Oct 12:17:29 12:20:01 13° 191° (S) 12:22:33 437.500
BEESAT 2 23 Oct 12:22:14 12:26:03 47° 115° (ESE) 12:29:56 435.950
AO-85 23 Oct 12:22:51 12:26:05 26° 113° (ESE) 12:29:23 145.980
EO-79 23 Oct 12:23:12 12:27:23 59° 75° (ENE) 12:31:36 145.935-145.965
POLYITAN 1 23 Oct 12:28:51 12:33:05 70° 75° (ENE) 12:37:22 437.675
BEESAT 3 23 Oct 12:31:11 12:34:51 34° 304° (NW) 12:38:34 437.485
EO-88 23 Oct 12:34:34 12:35:35 11° 293° (WNW) 12:36:36 145.990 - 145.960
NANOSAT C BR1 23 Oct 12:49:05 12:53:19 75° 258° (WSW) 12:57:35 145.865
QB50P2 23 Oct 12:49:28 12:53:40 58° 259° (W) 12:57:54 145.880/145.840
ESTCUBE 1 23 Oct 12:52:58 12:57:28 81° 102° (ESE) 13:01:57 437.505/2401.250
BUGSAT 1 23 Oct 12:53:01 12:56:21 23° 70° (ENE) 12:59:43 437.445
SPROUT 23 Oct 12:54:06 12:57:00 17° 94° (E) 12:59:51 437.525
DUCHIFAT 1 23 Oct 12:57:53 13:02:06 68° 258° (WSW) 13:06:21 145.980
Oscar 19 23 Oct 12:58:15 13:01:23 16° 65° (ENE) 13:04:32 437.125/150
LO-87 23 Oct 13:11:11 13:14:22 29° 287° (WNW) 13:17:32 145.935 - 145.965
RS-15 23 Oct 13:19:37 13:22:13 11° 265° (W) 13:24:49 29.354- 29.394
M-CUBED/EXP-1 PRIME 23 Oct 13:24:33 13:26:55 18° 66° (ENE) 13:29:14 437.505
Gurwin Techsat 1B 23 Oct 13:54:50 13:59:45 41° 71° (ENE) 14:04:43 435.225
BEESAT 2 23 Oct 14:01:43 14:04:02 15° 312° (NW) 14:06:21 435.950
AO-85 23 Oct 14:03:28 14:06:26 21° 309° (NW) 14:09:28 145.980
VELOX 1 23 Oct 14:03:54 14:08:21 78° 102° (ESE) 14:12:47 145.980
BUGSAT 1 23 Oct 14:28:09 14:31:34 24° 264° (W) 14:35:01 437.445
SPROUT 23 Oct 14:29:04 14:32:55 33° 288° (WNW) 14:36:45 437.525
Oscar 19 23 Oct 14:35:11 14:40:13 54° 259° (W) 14:45:16 437.125/150
50 SAT 23 Oct 14:35:53 14:39:06 48° 100° (E) 14:42:17 437.505
ISS 23 Oct 14:52:22 14:53:08 11° 23° (NNE) 14:53:54 437.550
AO-7 23 Oct 14:57:29 15:04:44 35° 62° (ENE) 15:11:57 .
M-CUBED/EXP-1 PRIME 23 Oct 14:58:52 15:01:15 18° 259° (WSW) 15:03:35 437.505
DX 1 23 Oct 14:59:06 15:03:29 74° 102° (ESE) 15:07:51 434.975-435.025
UKube-1 23 Oct 15:15:47 15:20:06 71° 102° (ESE) 15:24:24 .
ITAMSAT 1 23 Oct 15:16:45 15:20:36 21° 66° (ENE) 15:24:29 435.822/435.867
SO-50 23 Oct 15:33:59 15:38:28 49° 57° (ENE) 15:43:01 436.795
Gurwin Techsat 1B 23 Oct 15:35:50 15:39:48 21° 265° (W) 15:43:47 435.225
nSIGHT-1 23 Oct 15:45:20 15:48:07 27° 34° (NE) 15:50:54 .
ITUPSAT 1 23 Oct 16:09:05 16:13:19 30° 98° (E) 16:17:29 437.325
BEESAT 23 Oct 16:21:55 16:26:28 43° 99° (E) 16:30:59 436.000
PCSat 23 Oct 16:23:24 16:26:38 16° 48° (NE) 16:29:51 145.827
ISS 23 Oct 16:26:55 16:30:10 62° 40° (NE) 16:33:24 437.550
MOZHAYETS 4 23 Oct 16:43:09 16:47:44 89° 267° (W) 16:52:16
AO-7 23 Oct 16:49:16 16:57:11 48° 258° (WSW) 17:05:08 .
ITAMSAT 1 23 Oct 16:54:53 16:59:44 41° 261° (W) 17:04:39 435.822/435.867
CUBESAT XI-V 23 Oct 17:04:07 17:08:11 30° 97° (E) 17:12:13 437.345
SO-50 23 Oct 17:15:48 17:18:31 16° 251° (WSW) 17:21:15 436.795
nSIGHT-1 23 Oct 17:21:40 17:24:18 24° 229° (SW) 17:26:56 .
XW-2F 23 Oct 17:41:19 17:41:53 10° 67° (ENE) 17:42:28 145.980 - 146.000
KKS-1 23 Oct 17:44:59 17:48:26 22° 96° (E) 17:51:52 437.445
ITUPSAT 1 23 Oct 17:47:08 17:50:56 24° 292° (WNW) 17:54:44 437.325
CUTE-I 23 Oct 17:51:24 17:55:09 20° 65° (ENE) 17:58:54 437.470
LilacSat-2 23 Oct 17:52:10 17:54:44 17° 70° (ENE) 17:57:17 437.200
DOVE 4 23 Oct 17:52:27 17:56:37 90° 165° (SSE) 18:01:01 437.250
XW-2D 23 Oct 17:54:30 17:57:05 18° 70° (ENE) 17:59:39 145.860 - 145.880
BEESAT 23 Oct 18:00:44 18:03:51 17° 294° (WNW) 18:06:57 436.000
PCSat 23 Oct 18:05:10 18:10:35 73° 245° (WSW) 18:15:57 145.827
XW-2B 23 Oct 18:07:30 18:10:35 24° 72° (ENE) 18:13:41 145.730 - 145.750
STARS 23 Oct 18:08:13 18:10:43 15° 93° (E) 18:13:12 437.465
XW-2C 23 Oct 18:30:18 18:33:59 50° 75° (ENE) 18:37:39 145.795 - 145.815
HO-68 23 Oct 18:41:12 18:47:15 30° 64° (ENE) 18:53:17 435.675
CUBESAT XI-V 23 Oct 18:41:47 18:45:20 22° 291° (WNW) 18:48:54 437.345
KAITUO 1B 23 Oct 19:03:35 19:07:18 79° 259° (W) 19:11:02 145.475/437.950
CUTE 1.7 + AOD 2 23 Oct 19:05:21 19:08:52 26° 71° (ENE) 19:12:23 437.475
SEEDS 23 Oct 19:06:21 19:08:53 16° 68° (ENE) 19:11:26 437.485
CUBEBUG 2 23 Oct 19:08:10 19:11:24 19° 67° (ENE) 19:14:39 437.445
NUDT-PHONESAT 23 Oct 19:11:36 19:15:16 63° 259° (W) 19:18:57 437.300
XW-2F 23 Oct 19:11:56 19:15:33 44° 261° (W) 19:19:10 145.980 - 146.000
KKS-1 23 Oct 19:21:04 19:24:57 30° 290° (WNW) 19:28:50 437.445
LilacSat-2 23 Oct 19:25:33 19:28:47 26° 263° (W) 19:32:01 437.200
XW-2D 23 Oct 19:27:52 19:31:02 25° 263° (W) 19:34:13 145.860 - 145.880
CUTE-I 23 Oct 19:29:43 19:34:48 46° 261° (W) 19:39:55 437.470
O/OREOS (USA 219) 23 Oct 19:34:49 19:37:35 16° 99° (E) 19:40:20 437.305
UWE-3 23 Oct 19:38:05 19:41:38 22° 69° (ENE) 19:45:12 435.000/436.395/437.385
XW-2B 23 Oct 19:42:03 19:44:42 18° 265° (W) 19:47:21 145.730 - 145.750
STARS 23 Oct 19:43:01 19:47:12 42° 287° (WNW) 19:51:22 437.465
XW-2A 23 Oct 19:48:08 19:50:55 24° 72° (ENE) 19:53:41 145.665 - 145.685
YUBILEINY 23 Oct 20:06:28 20:14:05 31° 73° (ENE) 20:21:39 435.215
AO-73 23 Oct 20:18:36 20:22:27 28° 71° (ENE) 20:26:18 145.935
HO-68 23 Oct 20:27:49 20:34:38 47° 260° (W) 20:41:31 435.675
SEEDS 23 Oct 20:40:25 20:44:15 35° 262° (W) 20:48:05 437.485
CUTE 1.7 + AOD 2 23 Oct 20:41:23 20:44:37 21° 265° (W) 20:47:52 437.475
ZACube-1 23 Oct 20:42:15 20:46:44 58° 75° (ENE) 20:51:14 437.345
CUBEBUG 2 23 Oct 20:43:15 20:47:37 40° 262° (W) 20:52:07 437.445
BEESAT 2 23 Oct 20:43:47 20:45:43 13° 47° (NE) 20:47:39 435.950
BEESAT 3 23 Oct 20:50:08 20:53:58 47° 58° (ENE) 20:57:42 437.485
AAUSAT CUBESAT 2 23 Oct 20:52:29 20:56:32 62° 259° (W) 21:00:36 437.432
AO-85 23 Oct 20:56:17 20:58:58 15° 48° (NE) 21:01:44 145.980
STRAND 1 23 Oct 21:00:43 21:05:53 84° 286° (WNW) 21:11:01 437.568
O/OREOS (USA 219) 23 Oct 21:12:17 21:16:35 40° 295° (WNW) 21:20:56 437.305
Oscar 11 23 Oct 21:12:32 21:16:51 77° 77° (ENE) 21:21:10 .
UWE-3 23 Oct 21:13:41 21:17:50 32° 263° (W) 21:22:02 435.000/436.395/437.385
XW-2A 23 Oct 21:21:38 21:23:34 14° 266° (W) 21:25:30 145.665 - 145.685
EO-88 23 Oct 21:35:42 21:36:49 11° 67° (ENE) 21:37:57 145.990 - 145.960
DELFI C3 23 Oct 21:45:33 21:49:04 33° 72° (ENE) 21:52:34 145.870
FO-29 23 Oct 21:47:21 21:54:24 52° 100° (E) 22:01:56 435.910
Max Valier Satellite 23 Oct 21:52:03 21:55:14 27° 72° (ENE) 21:58:23 145.860
AO-73 23 Oct 21:54:53 21:58:35 24° 265° (W) 22:02:17 145.935
YUBILEINY 23 Oct 22:02:42 22:11:05 51° 271° (W) 22:19:30 435.215
BEESAT 2 23 Oct 22:19:50 22:23:47 54° 244° (WSW) 22:27:38 435.950
ZACube-1 23 Oct 22:21:54 22:23:18 11° 269° (W) 22:24:42 437.345
UNISAT 6 23 Oct 22:26:47 22:30:23 23° 95° (E) 22:33:53 437.425
BEESAT 3 23 Oct 22:29:52 22:31:01 11° 252° (WSW) 22:32:08 437.485
AO-85 23 Oct 22:35:04 22:39:43 66° 243° (WSW) 22:44:41 145.980
TIGRISAT 23 Oct 22:40:12 22:44:10 29° 96° (E) 22:48:01 435.000
EO-88 23 Oct 23:06:40 23:10:04 38° 261° (W) 23:13:30 145.990 - 145.960
RS-15 23 Oct 23:09:14 23:18:35 27° 102° (ESE) 23:27:57 29.354- 29.394
DELFI C3 23 Oct 23:21:45 23:23:52 14° 267° (W) 23:25:58 145.870
Max Valier Satellite 23 Oct 23:26:42 23:29:01 16° 266° (W) 23:31:21 145.860
FO-29 23 Oct 23:33:02 23:39:04 30° 293° (WNW) 23:45:30 435.910
LO-87 23 Oct 23:43:19 23:46:51 61° 76° (ENE) 23:50:26 145.935 - 145.965
